[TLELIST] Archives

 

[list_settings.list_name] Current TLEs

October 28th 2009 PST

HST 1 20580U 90037B 09297.45412603 .00000389 00000-0 17048-4 0 4670 2 20580 028.4709 338.6127 0003572 216.0985 143.9448 15.00843217869293 ISS (ZARYA) 1 25544U 98067A 09300.49244025 .00027844 00000-0 18265-3 0 8654 2 25544 051.6444 347.3627 0006410 253.1800 246.8870 15.75500823626799 CXO 1 25867U 99040B 09298.70833333 .00000416 00000-0 10000-3 0 3852 2 25867 066.0248 064.2702 7764228 275.3382 358.1213 00.37806237 5502 ____________________________________________________________________ These 2-Line ...Continue Reading

[list_settings.list_name] Current TLEs

October 27th 2009 PST

HST 1 20580U 90037B 09297.45412603 .00000389 00000-0 17048-4 0 4670 2 20580 028.4709 338.6127 0003572 216.0985 143.9448 15.00843217869293 ISS (ZARYA) 1 25544U 98067A 09299.48839120 .00029825 00000-0 19573-3 0 8571 2 25544 051.6439 352.5292 0006469 249.1786 312.3952 15.75450880626631 CXO 1 25867U 99040B 09298.70833333 .00000416 00000-0 10000-3 0 3852 2 25867 066.0248 064.2702 7764228 275.3382 358.1213 00.37806237 5502 ____________________________________________________________________ These 2-Line ...Continue Reading

[list_settings.list_name] Current TLEs

October 26th 2009 PST

HST 1 20580U 90037B 09297.45412603 .00000389 00000-0 17048-4 0 4670 2 20580 028.4709 338.6127 0003572 216.0985 143.9448 15.00843217869293 ISS (ZARYA) 1 25544U 98067A 09298.32721882 .00027754 00000-0 18307-3 0 8492 2 25544 051.6432 358.5031 0006606 245.5733 205.9583 15.75373828626459 CXO 1 25867U 99040B 09298.70833333 .00000416 00000-0 10000-3 0 3852 2 25867 066.0248 064.2702 7764228 275.3382 358.1213 00.37806237 5502 ____________________________________________________________________ These 2-Line ...Continue Reading

[list_settings.list_name] Current TLEs

October 25th 2009 PST

HST 1 20580U 90037B 09295.79166678 .00000330 00000-0 12474-4 0 4666 2 20580 028.4708 349.4660 0003641 199.2731 160.7743 15.00842047869040 ISS (ZARYA) 1 25544U 98067A 09297.52185185 .00028636 00000-0 18911-3 0 8450 2 25544 051.6429 002.6479 0006431 243.7192 317.2729 15.75329411626327 CXO 1 25867U 99040B 09296.08333333 .00000264 00000-0 10000-3 0 3846 2 25867 066.0172 064.3581 7759848 275.3355 000.7902 00.37807179 5495 ____________________________________________________________________ These 2-Line ...Continue Reading

[list_settings.list_name] Current TLEs

October 24th 2009 PST

HST 1 20580U 90037B 09295.79166678 .00000330 00000-0 12474-4 0 4666 2 20580 028.4708 349.4660 0003641 199.2731 160.7743 15.00842047869040 ISS (ZARYA) 1 25544U 98067A 09296.50553241 .00020729 00000-0 13865-3 0 8402 2 25544 051.6429 007.8755 0006682 239.8364 313.6093 15.75249741626169 CXO 1 25867U 99040B 09296.08333333 .00000264 00000-0 10000-3 0 3846 2 25867 066.0172 064.3581 7759848 275.3355 000.7902 00.37807179 5495 ____________________________________________________________________ These 2-Line ...Continue Reading

[list_settings.list_name] Current TLEs

October 23rd 2009 PST

HST 1 20580U 90037B 09294.52819721 .00000309 00000-0 10859-4 0 4650 2 20580 028.4711 357.7123 0003648 185.9306 174.1245 15.00841578868859 ISS (ZARYA) 1 25544U 98067A 09295.46795995 .00019629 00000-0 13180-3 0 8339 2 25544 051.6426 013.2115 0006818 231.9004 193.6812 15.75201097626002 CXO 1 25867U 99040B 09296.08333333 .00000264 00000-0 10000-3 0 3846 2 25867 066.0172 064.3581 7759848 275.3355 000.7902 00.37807179 5495 ____________________________________________________________________ These 2-Line ...Continue Reading

[list_settings.list_name] Current TLEs

October 22nd 2009 PST

HST 1 20580U 90037B 09292.46674577 .00000317 00000-0 11524-4 0 4647 2 20580 028.4713 011.1631 0003613 164.7655 195.3027 15.00840991868547 ISS (ZARYA) 1 25544U 98067A 09294.47503472 .00019670 00000-0 13229-3 0 8268 2 25544 051.6427 018.3191 0006924 227.5144 323.7359 15.75161314625847 CXO 1 25867U 99040B 09293.41666667 .00000210 00000-0 10000-3 0 3839 2 25867 066.0083 064.4561 7753357 275.3358 357.7844 00.37806440 5486 ____________________________________________________________________ These 2-Line ...Continue Reading

[list_settings.list_name] Current TLEs

October 21st 2009 PST

HST 1 20580U 90037B 09292.46674577 .00000317 00000-0 11524-4 0 4647 2 20580 028.4713 011.1631 0003613 164.7655 195.3027 15.00840991868547 ISS (ZARYA) 1 25544U 98067A 09293.31216194 .00019801 00000-0 13341-3 0 8184 2 25544 051.6429 024.3012 0007006 222.6862 210.0516 15.75115031625661 CXO 1 25867U 99040B 09293.41666667 .00000210 00000-0 10000-3 0 3839 2 25867 066.0083 064.4561 7753357 275.3358 357.7844 00.37806440 5486 ____________________________________________________________________ These 2-Line ...Continue Reading

[list_settings.list_name] Current TLEs

October 20th 2009 PST

HST 1 20580U 90037B 09289.60731301 +.00000363 +00000-0 +15027-4 0 04630 2 20580 028.4709 029.8258 0003565 135.1276 224.9637 15.00840391868113 ISS (ZARYA) 1 25544U 98067A 09292.49410196 .00019510 00000-0 13170-3 0 8121 2 25544 051.6429 028.5080 0007140 219.0344 251.8820 15.75080578625530 CXO 1 25867U 99040B 09288.22054727 .00000000 00000-0 10000-3 0 3826 2 25867 065.9658 064.6037 7745029 275.4038 010.2737 00.37815248 5472 ____________________________________________________________________ These 2-Line ...Continue Reading

[list_settings.list_name] Current TLEs

October 19th 2009 PST

HST 1 20580U 90037B 09288.14434562 .00000330 00000-0 12464-4 0 4622 2 20580 028.4704 039.3713 0003499 119.4800 240.6153 15.00839469867890 ISS (ZARYA) 1 25544U 98067A 09291.15595633 .00018649 00000-0 12639-3 0 8023 2 25544 051.6432 035.3893 0007260 212.7978 225.4505 15.75024120625323 CXO 1 25867U 99040B 09288.22054727 .00000000 00000-0 10000-3 0 3826 2 25867 065.9658 064.6037 7745029 275.4038 010.2737 00.37815248 5472 ____________________________________________________________________ These 2-Line ...Continue Reading
  • This mailing list is a public mailing list - anyone may join or leave, at any time.
  • This mailing list is announce-only.

International Space Station (ISS) / Hubble Space Telescope (HST) / Chandra X-Ray Observatory Orbital Data via EMAIL

Privacy Policy:

Private list